EW0482 Weather Reports


Display with metric or nautical units.
time (UTC)temp
F
wind
direction
speed
MPH
gust
MPH
rain 1hr
in
rain 24hr
in
rain mn
in
humidity
%
barometer
mb
20260901071537 65 249 0.0 0.0 0.00 0.00 0.00 86 1003.7
20260901070036 65 249 0.0 0.0 0.00 0.00 0.00 85 1003.6
20260901064531 65 249 0.0 0.0 0.00 0.00 0.00 85 1003.4
20260901063028 66 249 0.0 0.0 0.00 0.00 0.00 85 1003.2
20260901061526 66 249 0.0 0.0 0.00 0.00 0.00 84 1003.1
20260901060023 66 249 0.0 0.0 0.00 0.00 0.00 83 1002.9
20260901054523 67 249 0.0 0.0 0.00 0.00 0.00 83 1002.9
20260901053022 67 249 0.0 2.0 0.00 0.00 0.00 83 1002.9
20260901051522 67 249 0.0 0.0 0.00 0.00 0.00 84 1002.8
20260901050024 67 249 0.0 1.0 0.00 0.00 0.00 84 1002.7
20260901044528 67 254 0.0 0.0 0.00 0.00 0.00 84 1002.7
20260901043025 67 253 0.0 1.0 0.00 0.00 0.00 84 1002.5
20260901041520 68 253 0.0 1.0 0.00 0.00 0.00 84 1002.4
20260901040020 67 256 0.0 0.0 0.00 0.00 0.00 84 1002.2
20260901034533 67 256 0.0 1.0 0.00 0.00 0.00 84 1002.0
20260901033018 67 256 0.0 3.0 0.00 0.00 0.00 84 1001.8
20260901031519 68 259 0.0 3.0 0.00 0.00 0.00 84 1001.6
20260901030018 68 261 1.0 5.0 0.00 0.00 0.00 84 1001.6
20260901024518 69 253 0.0 6.0 0.00 0.00 0.00 83 1001.4
20260901023017 69 257 3.0 8.0 0.00 0.00 0.00 82 1001.4
20260901021521 70 248 0.0 6.0 0.00 0.00 0.00 81 1001.5
20260901020021 71 247 1.0 6.0 0.00 0.00 0.00 80 1001.4
20260901014516 72 251 0.0 7.0 0.00 0.00 0.00 79 1001.4
20260901013016 72 244 0.0 6.0 0.00 0.00 0.00 79 1001.4
20260901011516 73 263 2.0 7.0 0.00 0.00 0.00 77 1001.5
20260901010015 75 171 0.0 9.0 0.00 0.00 0.00 75 1001.6
20260901004515 75 244 2.0 8.0 0.00 0.00 0.00 73 1001.6
20260901003022 76 252 0.0 9.0 0.00 0.00 0.00 73 1001.5
20260901001518 76 243 1.0 7.0 0.00 0.00 0.00 72 1001.6
20260901000012 77 244 2.0 10.0 0.00 0.00 0.00 71 1001.6
20260831234513 79 257 0.0 10.0 0.00 0.00 0.00 68 1001.6
20260831233011 79 180 0.0 6.0 0.00 0.00 0.00 66 1001.6
20260831231511 79 244 2.0 8.0 0.00 0.00 0.00 68 1001.5
20260831230012 79 240 1.0 8.0 0.00 0.00 0.00 70 1001.4
20260831224510 78 214 2.0 10.0 0.00 0.00 0.00 68 1001.6
20260831223009 78 269 4.0 10.0 0.00 0.00 0.00 69 1001.7
20260831221521 80 241 5.0 11.0 0.00 0.00 0.00 66 1001.9
20260831220009 80 179 0.0 5.0 0.00 0.00 0.00 60 1002.1
20260831214507 80 185 0.0 6.0 0.00 0.00 0.00 64 1002.1
20260831213009 79 184 0.0 9.0 0.00 0.00 0.00 68 1002.2
20260831211509 80 221 1.0 7.0 0.00 0.00 0.00 68 1002.4
20260831210006 80 238 0.0 7.0 0.00 0.00 0.00 68 1002.4
20260831204508 80 277 0.0 9.0 0.00 0.00 0.00 69 1002.4
20260831203007 81 256 1.0 6.0 0.00 0.00 0.00 67 1002.5
20260831201505 82 198 0.0 6.0 0.00 0.00 0.00 66 1002.6
20260831200004 81 250 1.0 8.0 0.00 0.00 0.00 67 1002.6
20260831194503 80 241 1.0 7.0 0.00 0.00 0.00 68 1002.7
20260831193003 81 278 1.0 8.0 0.00 0.00 0.00 68 1002.8
20260831191502 82 252 3.0 9.0 0.00 0.00 0.00 66 1002.9
20260831190001 83 249 0.0 5.0 0.00 0.00 0.00 65 1002.9
20260831184502 82 256 0.0 1.0 0.00 0.00 0.00 67 1002.9
20260831183101 82 243 0.0 3.0 0.00 0.00 0.00 67 1002.9
20260831181603 81 257 0.0 5.0 0.00 0.00 0.00 68 1003.0
20260831180059 82 257 0.0 5.0 0.00 0.00 0.00 67 1003.0
20260831174621 82 158 0.0 2.0 0.00 0.00 0.00 66 1003.0
20260831173055 81 235 0.0 4.0 0.00 0.00 0.00 68 1003.0
20260831171554 81 167 0.0 2.0 0.00 0.00 0.00 69 1003.0
20260831170055 80 190 0.0 2.0 0.00 0.00 0.00 69 1003.0
20260831164554 79 87 0.0 2.0 0.00 0.00 0.00 73 1002.8
20260831163043 77 74 0.0 2.0 0.00 0.00 0.00 74 1002.7
20260831161541 76 121 0.0 2.0 0.00 0.00 0.00 77 1002.7
20260831160041 76 106 0.0 3.0 0.00 0.00 0.00 75 1002.7
20260831154538 76 240 0.0 1.0 0.00 0.00 0.00 77 1002.6
20260831153036 75 243 0.0 1.0 0.00 0.00 0.00 77 1002.5
20260831151540 75 247 0.0 1.0 0.00 0.00 0.00 78 1002.4
20260831150028 72 247 0.0 0.0 0.00 0.00 0.00 82 1002.5
20260831144525 71 247 0.0 0.0 0.00 0.00 0.00 86 1002.3
20260831143024 69 247 0.0 1.0 0.00 0.00 0.00 87 1002.2
20260831141522 67 247 0.0 0.0 0.00 0.00 0.00 87 1002.0
20260831140020 67 247 0.0 0.0 0.00 0.00 0.00 87 1001.8
20260831134520 67 247 0.0 0.0 0.00 0.00 0.00 87 1001.6
20260831133018 67 247 0.0 0.0 0.00 0.00 0.00 87 1001.4
20260831131518 67 247 0.0 0.0 0.00 0.00 0.00 87 1001.4
20260831130014 67 247 0.0 0.0 0.00 0.00 0.00 86 1001.3
20260831124514 67 247 0.0 0.0 0.00 0.00 0.00 86 1001.3
20260831123013 67 247 0.0 0.0 0.00 0.00 0.00 86 1001.2
20260831121512 67 247 0.0 0.0 0.00 0.00 0.00 86 1001.2
20260831120018 67 247 0.0 0.0 0.00 0.00 0.00 86 1001.2
20260831114511 67 247 0.0 0.0 0.00 0.00 0.00 85 1001.2
20260831113010 68 247 0.0 0.0 0.00 0.00 0.00 85 1001.2
20260831111510 67 247 0.0 0.0 0.00 0.00 0.00 84 1001.3
20260831110008 67 247 0.0 0.0 0.00 0.00 0.00 84 1001.3
20260831104509 67 247 0.0 0.0 0.00 0.00 0.00 83 1001.3
20260831103012 68 247 0.0 0.0 0.00 0.00 0.00 83 1001.4
20260831101508 68 246 0.0 0.0 0.00 0.00 0.00 83 1001.4
20260831100004 68 246 0.0 0.0 0.00 0.00 0.00 83 1001.4
20260831094507 68 246 0.0 0.0 0.00 0.00 0.00 82 1001.3
20260831093149 69 246 0.0 0.0 0.00 0.00 0.00 81 1001.3
20260831091558 69 246 0.0 0.0 0.00 0.00 0.00 81 1001.2
20260831090058 70 246 0.0 0.0 0.00 0.00 0.00 80 1001.3
20260831084644 71 246 0.0 0.0 0.00 0.00 0.00 78 1001.3
20260831083106 71 246 0.0 0.0 0.00 0.00 0.00 76 1001.3
20260831081555 71 246 0.0 1.0 0.00 0.00 0.00 76 1001.3
20260831080116 71 248 0.0 0.0 0.00 0.00 0.00 76 1001.3
20260831074552 70 250 0.0 0.0 0.00 0.00 0.00 79 1001.3
20260831073049 70 250 0.0 0.0 0.00 0.00 0.00 79 1001.1